TimePDT,TemperatureF,Dew PointF,Humidity,Sea Level PressureIn,VisibilityMPH,Wind Direction,Wind SpeedMPH,Gust SpeedMPH,PrecipitationIn,Events,Conditions,WindDirDegrees,DateUTC
12:51 AM,69.1,62.1,78,29.86,10.0,Calm,Calm,-,N/A,,Clear,0,2013-09-06 07:51:00
1:51 AM,71.1,62.1,73,29.84,10.0,Calm,Calm,-,N/A,,Clear,0,2013-09-06 08:51:00
2:51 AM,70.0,62.1,76,29.84,10.0,Calm,Calm,-,N/A,,Clear,0,2013-09-06 09:51:00
3:51 AM,70.0,62.1,76,29.83,10.0,Calm,Calm,-,N/A,,Clear,0,2013-09-06 10:51:00
4:51 AM,70.0,61.0,73,29.84,10.0,Calm,Calm,-,N/A,,Clear,0,2013-09-06 11:51:00
5:51 AM,71.1,61.0,70,29.84,10.0,Calm,Calm,-,N/A,,Clear,0,2013-09-06 12:51:00
6:51 AM,71.1,61.0,70,29.85,10.0,Calm,Calm,-,N/A,,Clear,0,2013-09-06 13:51:00
7:51 AM,75.0,61.0,62,29.86,10.0,Calm,Calm,-,N/A,,Clear,0,2013-09-06 14:51:00
8:51 AM,78.1,62.1,58,29.86,10.0,South,3.5,-,N/A,,Clear,190,2013-09-06 15:51:00
9:51 AM,81.0,61.0,50,29.87,10.0,SW,4.6,-,N/A,,Clear,220,2013-09-06 16:51:00
10:51 AM,82.9,60.1,46,29.87,10.0,SW,6.9,-,N/A,,Clear,220,2013-09-06 17:51:00
11:51 AM,84.9,59.0,41,29.86,10.0,SW,8.1,-,N/A,,Clear,230,2013-09-06 18:51:00
12:51 PM,84.0,60.1,44,29.86,10.0,SSW,10.4,-,N/A,,Clear,210,2013-09-06 19:51:00
1:51 PM,84.0,59.0,43,29.83,10.0,WSW,8.1,-,N/A,,Clear,250,2013-09-06 20:51:00
2:51 PM,81.0,59.0,47,29.81,10.0,SSW,12.7,-,N/A,,Clear,210,2013-09-06 21:51:00
3:51 PM,79.0,57.9,48,29.80,10.0,SW,10.4,-,N/A,,Clear,220,2013-09-06 22:51:00
4:51 PM,75.9,59.0,56,29.80,10.0,SW,9.2,-,N/A,,Clear,230,2013-09-06 23:51:00
5:51 PM,75.0,60.1,60,29.78,10.0,SSW,6.9,-,N/A,,Clear,210,2013-09-07 00:51:00
6:51 PM,73.0,60.1,64,29.79,10.0,Calm,Calm,-,N/A,,Clear,0,2013-09-07 01:51:00
7:51 PM,72.0,61.0,68,29.80,10.0,South,4.6,-,N/A,,Clear,170,2013-09-07 02:51:00
8:51 PM,71.1,62.1,73,29.82,10.0,SSW,3.5,-,N/A,,Clear,200,2013-09-07 03:51:00
9:51 PM,70.0,63.0,78,29.83,10.0,SSE,3.5,-,N/A,,Clear,150,2013-09-07 04:51:00
10:51 PM,69.1,62.1,78,29.84,10.0,Calm,Calm,-,N/A,,Clear,0,2013-09-07 05:51:00
11:51 PM,69.1,62.1,78,29.83,10.0,Calm,Calm,-,N/A,,Clear,0,2013-09-07 06:51:00